STARLINK-5172 (54064 NORAD) Tracking and Keplerian Element Data

This shows tracking and keplerian element data for the satellite.

Feedback or suggestion? Click here.




ElementValue
Catalog54064
NameSTARLINK-5172
Epoch Orbit550
Epoch Day325.33334491
Epoch Year2022
RAAN350.8592
Inclination53.2145
Eccentricity0.0004287
Argument of Perigee8.3061
Mean Anonmoly349.7084
Mean Motion15.7321058
Decay Rate0.00025571
L11 54064U 22136P 22325.33334491 .00025571 00000+0 18592-3 0 9994
L22 54064 53.2145 350.8592 0004287 8.3061 349.7084 15.73210580 5509



Live tracking and technical data element details for STARLINK-5172 (NORAD 54064). STARLINK-5172 can be tracked NOW for your location showing map with azimuth and elevation plus other details from your city location.







IsCatalogInMostPopularTable: catalog: 54064, numindb: 1
Update: records affected: 1



GetName: 54064 STARLINK-5172

Hit Count: updated at: Mon, 28 Nov 2022 22:04:31 GMT